Regional Weather Roundup
Issued by NWS Raleigh/Durham, NC

Home | Current Version | Previous Version | Text Only | Print | Product List | Glossary On
Versions: 1 2 3 4 5 6 7 8 9 10 11 12 13 14 15 16 17 18 19 20 21 22 23 24 25 26 27 28
000
ASUS42 KRAH 281510
RWRRAH
NORTH CAROLINA WEATHER ROUNDUP
NATIONAL WEATHER SERVICE RALEIGH NC
1000 AM EST TUE FEB 28 2017

NOTE: "FAIR" INDICATES FEW OR NO CLOUDS BELOW 12,000 FEET WITH NO
SIGNIFICANT WEATHER AND/OR OBSTRUCTIONS TO VISIBILITY.

NCZ001-053-055-056-065-067-281600-
WESTERN NORTH CAROLINA

CITY           SKY/WX    TMP DP  RH WIND       PRES   REMARKS
ASHEVILLE      CLOUDY    57  43  59 SE6       30.28F
JEFFERSON      CLOUDY    51  38  62 S3        30.27S
MORGANTON      CLOUDY    53  34  48 CALM      30.33F
HICKORY        CLOUDY    55  38  52 CALM      30.28F
RUTHERFORDTON  CLOUDY    58  37  44 CALM      30.30S
MOUNT AIRY     SUNNY     57  42  57 CALM      30.31S
BOONE          CLOUDY    54  40  58 SE5       30.27F
$$

NCZ021-022-025-041-071-084-088-281600-
CENTRAL NORTH CAROLINA

CITY           SKY/WX    TMP DP  RH WIND       PRES   REMARKS
CHARLOTTE      MOSUNNY   62  47  57 VRB3      30.30F
GREENSBORO     PTSUNNY   60  49  66 S7        30.27F
WINSTON-SALEM  SUNNY     61  43  51 SW6       30.29F
RALEIGH-DURHAM MOSUNNY   67  55  65 SW8       30.31F
FORT BRAGG     SUNNY     67  56  67 CALM      30.30S
FAYETTEVILLE   SUNNY    N/A N/A N/A CALM      30.31R
BURLINGTON     SUNNY     62  50  64 VRB3      30.28F
LAURINBURG     CLOUDY    68  59  73 S7        30.31F
$$

NCZ011-015-027-028-043-044-047-080-103-281600-
NORTHEASTERN NORTH CAROLINA

CITY           SKY/WX    TMP DP  RH WIND       PRES   REMARKS
ROCKY MT-WILSO PTSUNNY   65  58  78 S6        30.32S
GREENVILLE     PTSUNNY   70  59  68 S7        30.33R
WASHINGTON     MOSUNNY   68  59  71 SE6       30.33S
ELIZABETH CITY SUNNY     69  56  62 SW14      30.33S
MANTEO         PTSUNNY   66  56  70 SW7       30.35S
CAPE HATTERAS  CLOUDY    72  62  71 S13       30.34S HAZE
$$

NCZ078-087-090-091-093-098-101-281600-
SOUTHEASTERN NORTH CAROLINA

CITY           SKY/WX    TMP DP  RH WIND       PRES   REMARKS
LUMBERTON      MOSUNNY   68  60  75 CALM      30.30F
GOLDSBORO      PTSUNNY   68  64  87 S7        30.30S
KINSTON        CLOUDY    68  57  68 S6        30.33S
KENANSVILLE    CLOUDY    66  59  77 S5        30.32S
NEW BERN       PTSUNNY   72  61  68 S13G20    30.33F
CHERRY POINT   PTSUNNY   71  63  75 S10       30.33S
BEAUFORT       MOSUNNY   71  63  75 S12       30.34R
JACKSONVILLE   CLOUDY    69  65  86 SE9       30.33S
WILMINGTON     CLOUDY    68  62  81 E8        30.33S
$$





USA.gov is the U.S. government's official web portal to all federal, state and local government web resources and services.